{"data":{"norad_id":47288,"intl_designator":"2020-100AG","name":"ONEWEB-0142","alt_names":[],"object_type":"PAYLOAD","status":"ACTIVE","operator":null,"country":"UK","launch_date":"2020-12-18","launch_site_code":"VOSTO","launch_vehicle":null,"mission":null,"orbit_class":"UNKNOWN","rcs_meters":null,"size_class":null,"mass_kg":null,"dimensions":null,"purposes":["comms"],"wikipedia_slug":null,"has_3d_model":false,"image_url":null,"decayed_at":null,"tle_current":{"epoch":"2026-05-25T03:10:48.424224Z","epoch_age_seconds":63057,"freshness":"FRESH","line1":"1 47288U 20100AG  26145.13250491 -.00000005  00000+0 -50240-4 0  9996","line2":"2 47288  87.8953 355.2548 0001701  99.8879 260.2441 13.12440699261649","mean_motion":13.12440699,"eccentricity":0.0001701,"inclination_deg":87.8953,"raan_deg":355.2548,"arg_perigee_deg":99.8879,"mean_anomaly_deg":260.2441,"bstar":-5.024e-5,"rev_number":26164,"period_min":109.71924301778,"perigee_km":1212.4407875783,"apogee_km":1215.0235414681,"semimajor_km":7591.8691645232,"source":"CELESTRAK","updated_at":"2026-05-25T13:38:22.385904Z"}}}